FENGYUN 1C DEB

Satellite information

Favourite Embed

Satellite Type and Status

DEBRISIN ORBIT

Key statistics

Satellite FENGYUN 1C DEB at a glance.

Uptime

9714

Days in orbit

Revolutions

≈ 14.8

Per day

Orbit

SSO

Sun Synchronous Orbit

Inclination

99.1

Latest

Satellite identification and parameters

Extended collection of information and parameters for FENGYUN 1C DEB.

Object identification

Identified? True

Debris? True

Object name: FENGYUN 1C DEB

International designator: 1999-025DUC

Object number (NORAD): 36203

Object ID (CCSDS): 36203

Country: PEOPLES REPUBLIC OF CHINA (PRC)

Current information (Y/N): Y

RCS size: SMALL

Orbital parameters

Period: 97.409 minutes

Inclination: 99.0964 deg

SMA: 7012.841 km

Apoapsis: 693.076 km

Periapsis: 576.336 km

RAAN: 285.836 deg

Eccentricy: 0.0083233

Argument of periapsis: 161.4127 deg

Mean anomaly: 199.0151 deg

Mean motion: 14.78297245 rev/day

Mean motion (dot): 0.00012947 rev/day2

B* drag term: 0.0016876 1/REarth

Two-line elements (TLE)

Creation date: Dec. 9, 2025, 12:16 a.m.

Reference frame: TEME

Reference center: EARTH

Epoch: Dec. 8, 2025, 2:16 p.m. UTC

TLE line 0: 0 FENGYUN 1C DEB

TLE line 1: 1 36203U 99025DUC 25342.59446032 .00012947 00000-0 16876-2 0 9991

TLE line 2: 2 36203 99.0964 285.8360 0083233 161.4127 199.0151 14.78297245633687

Live tracking on map

Real-time ground track for satellite FENGYUN 1C DEB.

In-orbit conjunctions

A list of the most updated potential collisions computed for object FENGYUN 1C DEB.

Target Orbit TCA Probability of collision Miss distance Type
OKEAN O SSO 2024-11-15 07:17:42 0.0001426938 430.0 (m) PAYLOAD
CZ-6A DEB LEO 2024-10-03 05:33:28 0.000149774 500.0 (m) DEBRIS

Associated space launch

Chinese polar orbiting meteorological satellite

FENGYUN 1C DEB was lifted into orbit during the mission ‘Long March 4B | Feng Yun 1C’, on board a Long March 4B space rocket.

The launch took place on May 10, 1999, 1:33 a.m. from Launch Complex 7.

For more information about the launch, click the button.

Launch to space Long March 4B | Feng Yun 1C
Long March 4B | Feng Yun 1C

Agency: N/A

Status: Launch Successful

Launch date: May 10, 1999, 1:33 a.m. UTC

Rocket: Long March 4B

Launch pad: Launch Complex 7

Location: Taiyuan Satellite Launch Center, People's Republic of China

...

Latest news about this satellite

There are no fresh news available about this satellite. Check back as we update our databases every day.


Newsletter sign-up

Weekly statistics, charts and insights to help you stay on top of the space industry.